Poplar Bluff, MO

4:26 PM CST on November 12, 2019 (GMT -0600)
Poplar Bluff Municipal

Weather History for KPOF - June, 2019

Change the Weather History Date:

Tuesday, June 11, 2019

  Actual Average Record
Temperature  
Mean Temperature 67 °F -  
Max Temperature 80 °F 85 °F 101 °F (1944)
Min Temperature 55 °F 63 °F 49 °F (1966)
Cooling Degree Days 2    
Growing Degree Days 17 (Base 50)    
Moisture  
Dew Point 53 °F    
Average Humidity 63    
Maximum Humidity 97    
Minimum Humidity 35    
Precipitation  
Precipitation 0.00 in - - ()
Sea Level Pressure  
Sea Level Pressure 30.14 in    
Wind  
Wind Speed 5 mph (NE)    
Max Wind Speed 12 mph    
Max Gust Speed -    
Visibility 10 miles    
Events      
Averages and records for this station are not official NWS values.
T = Trace of Precipitation, MM = Missing Value Source: NWS Daily Summary

Daily Weather History Graph

Daily Weather History Graph

Search for Another Location

Airport or City:

Astronomy

Jun. 11, 2019 Rise Set
Actual Time 5:41 AM CDT 8:20 PM CDT
Civil Twilight 5:11 AM CDT 8:50 PM CDT
Nautical Twilight 4:33 AM CDT 9:28 PM CDT
Astronomical Twilight 3:50 AM CDT 10:11 PM CDT
Moon 2:29 PM CDT (6/11) 2:14 AM CDT (6/11)
Length of Visible Light 15h 39m
Length of Day
14h 38m
Waxing Gibbous, 66% of the Moon is Illuminated
Jun 11
Waxing Gibbous
Jun 17
Full
Jun 25
Last Quarter
Jul 2
New
Jul 9
First Quarter

Hourly Weather History & Observations

Time (CDT) Temp. Dew Point Humidity Pressure Visibility Wind Dir Wind Speed Gust Speed Precip Events Conditions
12:53 AM 60.1 °F 52.0 °F 75% 30.19 in 10.0 mi North 5.8 mph - N/A   Clear
1:53 AM 59.0 °F 51.1 °F 75% 30.20 in 10.0 mi NNW 5.8 mph - N/A   Clear
2:53 AM 57.0 °F 51.1 °F 81% 30.20 in 10.0 mi NW 3.5 mph - N/A   Clear
3:53 AM 55.9 °F 52.0 °F 87% 30.20 in 10.0 mi NNW 3.5 mph - N/A   Clear
4:53 AM 55.9 °F 51.1 °F 84% 30.21 in 10.0 mi NW 4.6 mph - N/A   Clear
5:53 AM 55.0 °F 51.1 °F 86% 30.22 in 10.0 mi NW 4.6 mph - N/A   Clear
6:53 AM 57.9 °F 52.0 °F 81% 30.22 in 10.0 mi NNW 4.6 mph - N/A   Clear
7:53 AM 64.9 °F 55.0 °F 70% 30.22 in 10.0 mi NE 4.6 mph - N/A   Clear
8:53 AM 69.1 °F 55.0 °F 61% 30.22 in 10.0 mi NE 6.9 mph - N/A   Clear
9:53 AM 73.0 °F 54.0 °F 51% 30.20 in 10.0 mi East 5.8 mph - N/A   Clear
10:53 AM 75.9 °F 52.0 °F 43% 30.19 in 10.0 mi ENE 5.8 mph - N/A   Clear
11:53 AM 77.0 °F 50.0 °F 39% 30.18 in 10.0 mi SE 11.5 mph - N/A   Clear
12:53 PM 77.0 °F 52.0 °F 42% 30.16 in 10.0 mi East 9.2 mph - N/A   Clear
1:53 PM 79.0 °F 51.1 °F 38% 30.14 in 10.0 mi East 9.2 mph - N/A   Clear
2:53 PM 79.0 °F 51.1 °F 38% 30.12 in 10.0 mi Variable 6.9 mph - N/A   Partly Cloudy
3:53 PM 79.0 °F 48.9 °F 35% 30.09 in 10.0 mi East 5.8 mph - N/A   Clear
4:53 PM 78.1 °F 53.1 °F 42% 30.07 in 10.0 mi East 4.6 mph - N/A   Clear
5:53 PM 79.0 °F 52.0 °F 39% 30.06 in 10.0 mi ENE 8.1 mph - N/A   Clear
6:53 PM 77.0 °F 52.0 °F 42% 30.05 in 10.0 mi East 4.6 mph - N/A   Clear
7:53 PM 73.9 °F 54.0 °F 50% 30.04 in 10.0 mi ENE 3.5 mph - N/A   Clear
8:53 PM 66.9 °F 60.1 °F 79% 30.05 in 10.0 mi Calm Calm - N/A   Clear
9:53 PM 64.0 °F 62.1 °F 93% 30.05 in 10.0 mi Calm Calm - N/A   Clear
10:53 PM 63.0 °F 61.0 °F 93% 30.06 in 10.0 mi Calm Calm - N/A   Clear
11:53 PM 61.0 °F 60.1 °F 97% 30.06 in 10.0 mi Calm Calm - N/A   Clear